Location: Bonac
(42.8765°N, 0.9753°E)
Time: 13:50:28
(UTC+00:00)

Cosmos 2366 rocket - Visible Passes

Search period start: 19 April 2026 00:00
Search period end: 29 April 2026 00:00
Orbit: 953 x 997 km, 82.9° (Epoch: 19 April)

Date Brightness Start Highest point End Pass type
(mag) Time Alt. Az. Time Alt. Az. Time Alt. Az.
19 Apr 4.0 19:29:18 10° S 19:35:23 65° E 19:41:28 10° NNE visible
19 Apr 6.4 21:16:56 10° WSW 21:21:18 20° WNW 21:25:40 10° NNW visible
20 Apr 4.3 19:54:29 10° SSW 20:00:37 72° W 20:06:46 10° N visible
20 Apr 6.9 21:45:45 10° WNW 21:47:10 11° WNW 21:48:35 10° NW visible
21 Apr 5.3 20:20:18 10° SW 20:26:01 40° WNW 20:31:47 10° N visible
22 Apr 6.3 20:46:51 10° WSW 20:51:36 23° WNW 20:56:24 10° NNW visible
23 Apr 4.1 19:24:54 10° S 19:31:02 84° W 19:37:13 10° N visible
23 Apr 6.9 21:14:44 10° W 21:17:25 13° WNW 21:20:06 10° NW visible
24 Apr 5.1 19:50:32 10° SSW 19:56:24 47° WNW 20:02:19 10° N visible
25 Apr 6.2 20:16:51 10° SW 20:21:56 27° WNW 20:27:04 10° NNW visible
26 Apr 6.8 20:44:13 10° W 20:47:41 15° WNW 20:51:10 10° NNW visible
27 Apr 7.6 04:08:08 10° NE 04:09:52 11° ENE 04:11:36 10° ENE visible
27 Apr 4.9 19:20:48 10° SSW 19:26:48 55° WNW 19:32:50 10° N visible
28 Apr 6.0 19:46:55 10° SW 19:52:17 31° WNW 19:57:42 10° N visible
